Americus, GA

6:46 PM EST on December 04, 2016 (GMT -0500)
Souther

Weather History for KACJ - February, 2013

Change the Weather History Date:

Wednesday, February 27, 2013

  Actual Average (KABY) Record (KABY)
Temperature  
Mean Temperature 49 °F 55 °F  
Max Temperature 59 °F 68 °F 85 °F (1944)
Min Temperature 41 °F 42 °F 19 °F (1967)
Degree Days  
Heating Degree Days 16 10  
Month to date heating degree days 346  
Since 1 July heating degree days 1550  
Cooling Degree Days 0 1  
Month to date cooling degree days 2  
Year to date cooling degree days 6  
Moisture  
Dew Point 35 °F    
Average Humidity 63    
Maximum Humidity 81    
Minimum Humidity 44    
Precipitation  
Precipitation 0.00 in 0.17 in 1.37 in (2005)
Month to date precipitation 3.99  
Year to date precipitation 8.81  
Sea Level Pressure  
Sea Level Pressure 29.93 in    
Wind  
Wind Speed 8 mph (West)    
Max Wind Speed 14 mph    
Max Gust Speed 17 mph    
Visibility 10 miles    
Events      
T = Trace of Precipitation, MM = Missing Value Source: NWS Daily Summary

Daily Weather History Graph

Daily Weather History Graph

Search for Another Location

Airport or City:

Trip Planner

Search our weather history database for the weather conditions in past years. The results will help you decide how hot, cold, wet, or windy it might be!

Date:

Astronomy

Feb. 27, 2013 Rise Set
Actual Time 7:06 AM EST 6:33 PM EST
Civil Twilight 6:41 AM EST 6:57 PM EST
Nautical Twilight 6:13 AM EST 7:26 PM EST
Astronomical Twilight 5:44 AM EST 7:54 PM EST
Moon 8:41 PM EST (2/27) 7:50 AM EST (2/27)
Length of Visible Light 12h 16m
Length of Day
11h 27m
Waning Gibbous, 96% of the Moon is Illuminated
Feb 27
Waning Gibbous
Mar 4
Last Quarter
Mar 11
New
Mar 19
First Quarter
Mar 27
Full

Hourly Weather History & Observations

Time (EST) Temp. Windchill Dew Point Humidity Pressure Visibility Wind Dir Wind Speed Gust Speed Precip Events Conditions
12:15 AM 46.4 °F 42.4 °F 37.4 °F 71% 29.87 in 10.0 mi West 8.1 mph - N/A   Clear
12:35 AM 46.4 °F 41.9 °F 35.6 °F 66% 29.87 in 10.0 mi West 9.2 mph - N/A   Clear
12:55 AM 46.4 °F 41.9 °F 35.6 °F 66% 29.88 in 10.0 mi West 9.2 mph - N/A   Clear
1:15 AM 46.4 °F 42.4 °F 35.6 °F 66% 29.89 in 10.0 mi West 8.1 mph - N/A   Clear
1:35 AM 46.4 °F 43.5 °F 35.6 °F 66% 29.90 in 10.0 mi West 5.8 mph - N/A   Clear
1:55 AM 46.4 °F 42.4 °F 35.6 °F 66% 29.90 in 10.0 mi West 8.1 mph 17.3 mph N/A   Clear
2:15 AM 44.6 °F 40.2 °F 35.6 °F 71% 29.90 in 10.0 mi West 8.1 mph - N/A   Clear
2:35 AM 44.6 °F 40.2 °F 35.6 °F 71% 29.90 in 10.0 mi West 8.1 mph - N/A   Clear
2:55 AM 44.6 °F 39.2 °F 35.6 °F 71% 29.90 in 10.0 mi West 10.4 mph - N/A   Clear
3:15 AM 44.6 °F 39.2 °F 35.6 °F 71% 29.90 in 10.0 mi West 10.4 mph 16.1 mph N/A   Clear
3:35 AM 44.6 °F 39.7 °F 35.6 °F 71% 29.90 in 10.0 mi West 9.2 mph - N/A   Clear
3:55 AM 44.6 °F 39.7 °F 35.6 °F 71% 29.90 in 10.0 mi West 9.2 mph - N/A   Clear
4:15 AM 44.6 °F 40.2 °F 35.6 °F 71% 29.90 in 10.0 mi West 8.1 mph - N/A   Clear
4:35 AM 42.8 °F 37.5 °F 33.8 °F 70% 29.90 in 10.0 mi West 9.2 mph 16.1 mph N/A   Clear
4:55 AM 42.8 °F 37.5 °F 33.8 °F 70% 29.91 in 10.0 mi West 9.2 mph - N/A   Clear
5:15 AM 42.8 °F 38.6 °F 33.8 °F 70% 29.92 in 10.0 mi West 6.9 mph - N/A   Clear
5:35 AM 42.8 °F 40.1 °F 33.8 °F 70% 29.92 in 10.0 mi West 4.6 mph - N/A   Clear
5:55 AM 42.8 °F 40.1 °F 33.8 °F 70% 29.92 in 10.0 mi West 4.6 mph - N/A   Clear
6:15 AM 42.8 °F 39.3 °F 33.8 °F 70% 29.93 in 10.0 mi West 5.8 mph - N/A   Clear
6:55 AM 41.0 °F - 33.8 °F 76% 29.95 in 10.0 mi Calm Calm - N/A   Clear
7:15 AM 41.0 °F 38.0 °F 33.8 °F 76% 29.95 in 10.0 mi WSW 4.6 mph - N/A   Clear
7:35 AM 41.0 °F - 35.6 °F 81% 29.95 in 10.0 mi Calm Calm - N/A   Clear
7:55 AM 42.8 °F 40.1 °F 35.6 °F 76% 29.96 in 10.0 mi WSW 4.6 mph - N/A   Clear
8:15 AM 42.8 °F 39.3 °F 35.6 °F 76% 29.96 in 10.0 mi West 5.8 mph - N/A   Clear
8:35 AM 44.6 °F 39.2 °F 35.6 °F 71% 29.96 in 10.0 mi WNW 10.4 mph - N/A   Clear
8:55 AM 44.6 °F 39.7 °F 35.6 °F 71% 29.97 in 10.0 mi WNW 9.2 mph - N/A   Clear
9:15 AM 46.4 °F 41.5 °F 33.8 °F 62% 29.97 in 10.0 mi West 10.4 mph - N/A   Clear
9:35 AM 46.4 °F 41.5 °F 33.8 °F 62% 29.97 in 10.0 mi WNW 10.4 mph - N/A   Clear
9:55 AM 46.4 °F 41.5 °F 33.8 °F 62% 29.97 in 10.0 mi NW 10.4 mph - N/A   Clear
10:35 AM 50.0 °F - 33.8 °F 54% 29.97 in 10.0 mi WNW 9.2 mph - N/A   Clear
10:55 AM 51.8 °F - 33.8 °F 50% 29.97 in 10.0 mi West 13.8 mph - N/A   Clear
11:15 AM 50.0 °F - 33.8 °F 54% 29.97 in 10.0 mi NW 9.2 mph - N/A   Clear
11:35 AM 51.8 °F - 33.8 °F 50% 29.97 in 10.0 mi West 11.5 mph - N/A   Clear
11:55 AM 53.6 °F - 35.6 °F 51% 29.96 in 10.0 mi NW 9.2 mph - N/A   Clear
12:15 PM 53.6 °F - 35.6 °F 51% 29.96 in 10.0 mi WNW 9.2 mph - N/A   Clear
12:35 PM 55.4 °F - 33.8 °F 44% 29.96 in 10.0 mi WNW 12.7 mph 16.1 mph N/A   Clear
12:55 PM 55.4 °F - 35.6 °F 47% 29.96 in 10.0 mi West 10.4 mph 17.3 mph N/A   Clear
1:15 PM 55.4 °F - 35.6 °F 47% 29.94 in 10.0 mi West 11.5 mph - N/A   Clear
1:35 PM 55.4 °F - 35.6 °F 47% 29.94 in 10.0 mi West 12.7 mph - N/A   Clear
1:55 PM 57.2 °F - 35.6 °F 44% 29.93 in 10.0 mi WSW 10.4 mph - N/A   Clear
2:15 PM 57.2 °F - 35.6 °F 44% 29.92 in 10.0 mi WSW 9.2 mph 16.1 mph N/A   Clear
2:35 PM 57.2 °F - 37.4 °F 48% 29.92 in 10.0 mi SW 11.5 mph - N/A   Clear
2:55 PM 59.0 °F - 37.4 °F 45% 29.91 in 10.0 mi WSW 9.2 mph - N/A   Clear